NOAA 16 DEB, 41411

Orbit data source: Space-Track

NOAA 16 DEB, 41411 is space debris in SSO originally from a launch on Thu, 21 Sep 2000 UTC launched from the Air Force Western Test Range (AFWTR). Debris objects in space refer to the collection of defunct objects orbiting the Earth. Examples of debris include non-operational satellites, rocket bodies, and fragments generated from explosions, collisions, or faulty payload assembly.

Loading next visibility...
Identifier
41411, 2000-055KQ
Orbit
SSO
Country
Flag of USUS
Related business
Manufacturer
Unknown
Mission
Spacecraft
Bus & Motor
Unknown
Mass
Unknown
Launch date (UTC)
2000-09-21 (25 years ago)
Launch vehicle
Unknown
Launch site
Air Force Western Test Range (AFWTR)
Object type
Payload
Rocket body
Debris
Shape & HBR
Unknown shape, 0.1 m
Radar Cross Section
Small (<0.1 m²)

Expand to show TLE details & history
Last TLE update: 2 days ago

TLE from 2 days ago
0 NOAA 16 DEB
1 41411U 00055KQ  26036.27829787  .00009101  00000-0  30451-2 0  9994
2 41411  98.8291 160.8551 0016751 197.2042 162.8578 14.37518015517770
Epoch: 2026-02-05T06:40Z
TLE epoch observation values (Epoch: 2026-02-05T06:40:44.935Z)
Latitude
-0.00005°
Longitude
-74.76494°
Altitude
781.086 km
Speed
7.457 km/s
True Right ascension
10h 43m 25s
True Declination
0° 00' 00"
Sunlit
Object was in full shadow at epoch
Visualization orbit readout
Latitude
Unknown
Longitude
Unknown
Altitude
Unknown
Speed
Unknown
Apparent Right ascension
Unknown
Apparent Declination
Unknown
Sunlit
N/A
Visualization observer readout
Local Sidereal Time
06:18:38
Azimuth
Unknown
Elevation
Unknown
Doppler factor
Unknown
Orbital elements
Apogee altitude
775.815 km
Perigee altitude
751.888 km
Semi-major axis
7,141.989 km
Eccentricity
0.00168
Inclination
98.8291°
RAAN
160.8551°
Arg. of periapsis
197.2042°
True anomaly
162.91426°
Mean anomaly
162.8578°
Eccentric anomaly
162.88604°
Mean motion
3.59596 °/min
Orbital period
100.11 mins
BSTAR
0.0030451
Loading maneuver chart data...
Computing Atmospheric mass density...
Loading historical data...
Loading historical data...
Loading historical data...
Loading historical data...
Loading historical data...
Loading historical data...
Loading historical data...

Documentation

Showing up to 5 results
|